FW3304 Weather Reports


Display with metric or nautical units.
time (UTC)temp
F
wind
direction
speed
MPH
gust
MPH
rain 1hr
in
rain 24hr
in
rain mn
in
humidity
%
barometer
mb
20260902224556 92 136 3.0 7.0 0.00 0.00 0.00 65 1014.6
20260902223055 93 124 2.0 5.0 0.00 0.00 0.00 65 1014.6
20260902223015 93 141 2.0 9.0 0.00 0.00 0.00 64 1017.2
20260902221557 93 140 3.0 6.0 0.00 0.00 0.00 64 1014.6
20260902220053 93 148 4.0 7.0 0.00 0.00 0.00 62 1014.7
20260902220015 93 148 3.0 10.0 0.00 0.00 0.00 60 1017.3
20260902214552 93 161 5.0 8.0 0.00 0.00 0.00 61 1014.7
20260902213055 93 158 3.0 7.0 0.00 0.00 0.00 59 1014.9
20260902213035 93 151 3.0 10.0 0.00 0.00 0.00 60 1017.5
20260902211550 94 153 3.0 8.0 0.00 0.00 0.00 59 1015.0
20260902210049 94 179 2.0 6.0 0.00 0.00 0.00 59 1015.0
20260902210017 94 140 3.0 10.0 0.00 0.00 0.00 60 1017.6
20260902204547 94 167 2.0 7.0 0.00 0.00 0.00 60 1015.2
20260902203047 94 137 4.0 8.0 0.00 0.00 0.00 59 1015.3
20260902203041 94 160 4.0 11.0 0.00 0.00 0.00 60 1018.0
20260902201545 94 148 3.0 8.0 0.00 0.00 0.00 61 1015.4
20260902200042 94 116 3.0 8.0 0.00 0.00 0.00 60 1015.5
20260902200016 94 148 4.0 11.0 0.00 0.00 0.00 59 1018.3
20260902194540 94 120 4.0 10.0 0.00 0.00 0.00 60 1015.7
20260902193053 94 137 5.0 9.0 0.00 0.00 0.00 60 1015.9
20260902193017 94 160 3.0 10.0 0.00 0.00 0.00 61 1018.8
20260902191538 94 180 4.0 7.0 0.00 0.00 0.00 60 1016.0
20260902190036 93 155 4.0 9.0 0.00 0.00 0.00 61 1016.2
20260902190017 93 161 4.0 12.0 0.00 0.00 0.00 60 1018.9
20260902184541 93 143 4.0 8.0 0.00 0.00 0.00 60 1016.3
20260902183035 93 98 2.0 5.0 0.00 0.00 0.00 60 1016.4
20260902183017 93 158 4.0 12.0 0.00 0.00 0.00 60 1019.0
20260902181534 93 130 4.0 9.0 0.00 0.00 0.00 62 1016.5
20260902180031 92 127 4.0 8.0 0.00 0.00 0.00 66 1016.5
20260902180016 92 142 4.0 10.0 0.00 0.00 0.00 66 1019.4
20260902174532 92 196 4.0 7.0 0.00 0.00 0.00 65 1016.8
20260902173029 92 126 4.0 8.0 0.00 0.00 0.00 67 1016.9
20260902173017 92 172 3.0 9.0 0.00 0.00 0.00 67 1019.6
20260902171526 92 183 3.0 6.0 0.00 0.00 0.00 67 1017.0
20260902170022 91 198 3.0 8.0 0.00 0.00 0.00 65 1017.3
20260902164524 91 137 3.0 8.0 0.00 0.00 0.00 68 1017.4
20260902163024 91 154 4.0 7.0 0.00 0.00 0.00 69 1017.6
20260902163016 91 174 3.0 9.0 0.00 0.00 0.00 69 1020.3
20260902161514 90 172 3.0 7.0 0.00 0.00 0.00 72 1017.7
20260902160018 90 210 4.0 8.0 0.00 0.00 0.00 70 1017.8
20260902160016 90 210 2.0 8.0 0.00 0.00 0.00 70 1020.4
20260902154507 89 209 2.0 6.0 0.00 0.00 0.00 71 1017.8
20260902153017 88 187 2.0 7.0 0.00 0.00 0.00 73 1020.6
20260902153003 88 221 2.0 7.0 0.00 0.00 0.00 73 1017.9
20260902151601 87 160 2.0 6.0 0.00 0.00 0.00 76 1017.9
20260902151501 87 160 2.0 6.0 0.00 0.00 0.00 75 1018.0
20260902150057 87 195 1.0 7.0 0.00 0.00 0.00 77 1018.0
20260902150016 87 173 2.0 7.0 0.00 0.00 0.00 78 1020.8
20260902144553 85 168 2.0 5.0 0.00 0.00 0.00 78 1017.9
20260902143052 84 198 2.0 4.0 0.00 0.00 0.00 80 1017.8
20260902143016 84 194 2.0 5.0 0.00 0.00 0.00 81 1020.5
20260902141546 83 193 2.0 4.0 0.00 0.00 0.00 83 1017.8
20260902140049 82 199 2.0 4.0 0.00 0.00 0.00 84 1017.8
20260902140016 82 191 2.0 5.0 0.00 0.00 0.00 84 1020.7
20260902134538 81 203 2.0 5.0 0.00 0.00 0.00 87 1017.9
20260902133034 80 157 0.0 4.0 0.00 0.00 0.00 90 1017.9
20260902133020 80 153 0.0 5.0 0.00 0.00 0.00 90 1020.7
20260902131530 78 144 0.0 0.0 0.00 0.00 0.00 91 1017.9
20260902130036 76 0.0 0.0 0.00 0.00 0.00 96 1020.5
20260902130026 76 144 0.0 0.0 0.00 0.00 0.00 96 1017.8
20260902124522 74 144 0.0 0.0 0.00 0.00 0.00 98 1017.6
20260902123036 73 0.0 0.0 0.00 0.00 0.00 99 1020.4
20260902123021 73 144 0.0 0.0 0.00 0.00 0.00 99 1017.6
20260902121518 72 144 0.0 0.0 0.00 0.00 0.00 98 1017.6
20260902120056 71 0.0 0.0 0.00 0.00 0.00 98 1019.9
20260902120016 71 147 0.0 0.0 0.00 0.00 0.00 98 1017.4
20260902114522 71 147 0.0 0.0 0.00 0.00 0.00 98 1017.2
20260902113016 71 0.0 0.0 0.00 0.00 0.00 97 1019.7
20260902113011 71 147 0.0 0.0 0.00 0.00 0.00 97 1017.0
20260902111509 71 147 0.0 0.0 0.00 0.00 0.00 97 1016.9
20260902110036 71 0.0 0.0 0.00 0.00 0.00 97 1019.5
20260902110008 71 147 0.0 0.0 0.00 0.00 0.00 97 1016.8
20260902104506 72 147 0.0 0.0 0.00 0.00 0.00 97 1016.7
20260902103016 72 0.0 0.0 0.00 0.00 0.00 97 1019.1
20260902103008 72 147 0.0 0.0 0.00 0.00 0.00 97 1016.5
20260902101600 72 147 0.0 0.0 0.00 0.00 0.00 97 1016.4
20260902100124 72 147 0.0 0.0 0.00 0.00 0.00 96 1016.2
20260902100020 72 0.0 0.0 0.00 0.00 0.00 96 1018.9
20260902094614 73 147 0.0 0.0 0.00 0.00 0.00 96 1016.1
20260902093111 73 147 0.0 0.0 0.00 0.00 0.00 96 1016.0
20260902093016 73 0.0 0.0 0.00 0.00 0.00 96 1018.7
20260902091555 74 147 0.0 0.0 0.00 0.00 0.00 96 1016.1
20260902090053 74 147 0.0 0.0 0.00 0.00 0.00 96 1016.0
20260902090016 74 0.0 0.0 0.00 0.00 0.00 96 1018.6
20260902084555 74 147 0.0 0.0 0.00 0.00 0.00 96 1015.8
20260902083052 74 147 0.0 0.0 0.00 0.00 0.00 97 1015.9
20260902083015 74 0.0 0.0 0.00 0.00 0.00 97 1018.7
20260902081552 74 147 0.0 0.0 0.00 0.00 0.00 98 1015.9
20260902080053 73 146 0.0 0.0 0.00 0.00 0.00 97 1015.9
20260902080015 73 0.0 0.0 0.00 0.00 0.00 97 1018.5
20260902074550 73 146 0.0 0.0 0.00 0.00 0.00 97 1016.0
20260902073052 74 146 0.0 0.0 0.00 0.00 0.00 97 1015.9
20260902073016 74 0.0 0.0 0.00 0.00 0.00 97 1018.5
20260902071548 74 146 0.0 0.0 0.00 0.00 0.00 97 1015.8
20260902070046 74 146 0.0 0.0 0.00 0.00 0.00 97 1015.7
20260902070015 74 0.0 0.0 0.00 0.00 0.00 97 1018.5
20260902064546 74 146 0.0 0.0 0.00 0.00 0.00 97 1015.7
20260902063045 74 146 0.0 0.0 0.00 0.00 0.00 96 1015.8
20260902063020 74 0.0 0.0 0.00 0.00 0.00 96 1018.5
20260902061556 74 146 0.0 0.0 0.00 0.00 0.00 96 1015.8
20260902060054 74 146 0.0 0.0 0.00 0.00 0.00 96 1015.9
20260902060015 74 0.0 0.0 0.00 0.00 0.00 96 1018.7
20260902054543 74 146 0.0 0.0 0.00 0.00 0.00 96 1016.0
20260902053039 74 146 0.0 0.0 0.00 0.00 0.00 96 1015.8
20260902053015 74 0.0 0.0 0.00 0.00 0.00 96 1018.6
20260902051537 75 146 0.0 0.0 0.00 0.00 0.00 96 1015.8
20260902050040 75 146 0.0 0.0 0.00 0.00 0.00 95 1015.7
20260902050035 75 0.0 0.0 0.00 0.00 0.00 95 1018.4
20260902044534 75 146 0.0 0.0 0.00 0.00 0.00 95 1015.6
20260902043034 75 146 0.0 0.0 0.00 0.00 0.00 95 1015.7
20260902043015 75 0.0 0.0 0.00 0.00 0.00 95 1018.4
20260902041535 75 146 0.0 0.0 0.00 0.00 0.00 95 1015.8
20260902040032 76 146 0.0 0.0 0.00 0.00 0.00 94 1015.8
20260902040015 76 0.0 0.0 0.00 0.00 0.00 94 1018.6
20260902034532 76 146 0.0 0.0 0.00 0.00 0.00 94 1015.9
20260902033036 76 146 0.0 0.0 0.00 0.00 0.00 94 1016.0
20260902033015 76 0.0 0.0 0.00 0.00 0.00 94 1018.6
20260902031531 76 146 0.0 0.0 0.00 0.00 0.00 93 1016.0
20260902030059 77 0.0 0.0 0.00 0.00 0.00 92 1018.6
20260902030032 77 146 0.0 0.0 0.00 0.00 0.00 92 1016.0
20260902024537 77 146 0.0 0.0 0.00 0.00 0.00 92 1016.1
20260902023029 78 146 0.0 0.0 0.00 0.00 0.00 92 1016.0
20260902023015 78 0.0 0.0 0.00 0.00 0.00 92 1018.4
20260902021542 78 146 0.0 0.0 0.00 0.00 0.00 91 1016.0
20260902020031 79 146 0.0 0.0 0.00 0.00 0.00 90 1016.0
20260902020015 79 0.0 0.0 0.00 0.00 0.00 90 1018.3
20260902014534 80 146 0.0 0.0 0.00 0.00 0.00 90 1015.7
20260902013026 80 146 0.0 0.0 0.00 0.00 0.00 88 1015.7
20260902013015 80 0.0 0.0 0.00 0.00 0.00 88 1018.2
20260902011525 81 146 0.0 0.0 0.00 0.00 0.00 86 1015.5
20260902010027 82 146 0.0 0.0 0.00 0.00 0.00 85 1015.4
20260902010015 83 0.0 0.0 0.00 0.00 0.00 85 1018.0
20260902004524 84 146 0.0 0.0 0.00 0.00 0.00 83 1015.3
20260902003024 85 146 0.0 0.0 0.00 0.00 0.00 81 1015.3
20260902003015 85 0.0 0.0 0.00 0.00 0.00 81 1017.9
20260902001522 87 146 0.0 0.0 0.00 0.00 0.00 77 1015.3
20260902000037 89 0.0 5.0 0.00 0.00 0.00 74 1018.2
20260902000021 89 146 0.0 0.0 0.00 0.00 0.00 74 1015.5
20260901234521 90 146 0.0 0.0 0.00 0.00 0.00 72 1015.5
20260901233121 91 147 1.0 6.0 0.00 0.00 0.00 70 1018.2
20260901233041 91 146 0.0 3.0 0.00 0.00 0.00 70 1015.6
20260901231522 91 146 2.0 4.0 0.00 0.00 0.00 67 1015.6
20260901230031 92 146 1.0 4.0 0.00 0.00 0.00 66 1015.6
20260901230017 92 147 2.0 7.0 0.00 0.00 0.00 66 1018.2